Change the Weather History Date:

Thursday, July 18, 2013

  Actual Average Record
Temperature  
Mean Temperature 83 °F 76 °F  
Max Temperature 93 °F 86 °F 103 °F (1977)
Min Temperature 73 °F 65 °F 53 °F (1910)
Degree Days  
Heating Degree Days 0 0  
Month to date heating degree days 0 0  
Since 1 June heating degree days 2 11  
Since 1 July heating degree days 0 0  
Cooling Degree Days 18 11  
Month to date cooling degree days 236 193  
Year to date cooling degree days 629 498  
Since 1 June cooling degree days 482 412  
Growing Degree Days 32 (Base 50)    
Moisture  
Dew Point 73 °F    
Average Humidity 75    
Maximum Humidity 94    
Minimum Humidity 56    
Precipitation  
Precipitation 0.00 in 0.15 in 0.61 in (2001)
Month to date precipitation 3.41 2.46  
Year to date precipitation 27.10 22.66  
Sea Level Pressure  
Sea Level Pressure 30.09 in    
Wind  
Wind Speed 1 mph (SSW)    
Max Wind Speed 14 mph    
Max Gust Speed 16 mph    
Visibility 7 miles    
Events Thunderstorm    
T = Trace of Precipitation, MM = Missing Value Source: NWS Daily Summary

Daily Weather History Graph

Daily Weather History Graph

Search for Another Location

Airport or City:

Trip Planner

Search our weather history database for the weather conditions in past years. The results will help you decide how hot, cold, wet, or windy it might be!

Date:

Astronomy

Jul. 18, 2013 Rise Set
Actual Time 6:05 AM EDT 8:34 PM EDT
Civil Twilight 5:34 AM EDT 9:04 PM EDT
Nautical Twilight 4:57 AM EDT 9:42 PM EDT
Astronomical Twilight 4:15 AM EDT 10:24 PM EDT
Moon 4:29 PM EDT (7/18) 1:53 AM EDT (7/18)
Length of Visible Light 15h 29m
Length of Day
14h 29m
Waxing Gibbous, 77% of the Moon is Illuminated
Jul 18
Waxing Gibbous
Jul 22
Full
Jul 29
Last Quarter
Aug 6
New
Aug 14
First Quarter

Hourly Weather History & Observations

Time (EDT) Temp. Heat Index Dew Point Humidity Pressure Visibility Wind Dir Wind Speed Gust Speed Precip Events Conditions
12:53 AM 75.9 °F - 73.9 °F 94% 30.14 in 5.0 mi Calm Calm - N/A   Clear
1:53 AM 75.9 °F - 73.9 °F 94% 30.13 in 5.0 mi West 5.8 mph - N/A   Clear
2:53 AM 75.0 °F - 73.0 °F 94% 30.12 in 5.0 mi Calm Calm - N/A   Clear
3:37 AM 73.4 °F - 71.6 °F 94% 30.14 in 2.5 mi Calm Calm - N/A   Clear
3:53 AM 73.9 °F - 72.0 °F 93% 30.11 in 4.0 mi Calm Calm - N/A   Clear
4:53 AM 73.9 °F - 72.0 °F 93% 30.10 in 3.0 mi Calm Calm - N/A   Partly Cloudy
5:53 AM 75.0 °F - 72.0 °F 90% 30.11 in 5.0 mi Calm Calm - N/A   Clear
6:53 AM 73.9 °F - 72.0 °F 93% 30.12 in 4.0 mi Calm Calm - N/A   Clear
7:53 AM 77.0 °F - 73.0 °F 88% 30.12 in 6.0 mi Calm Calm - N/A   Clear
8:53 AM 81.0 °F 86.2 °F 73.9 °F 79% 30.13 in 6.0 mi Calm Calm - N/A   Haze
9:53 AM 86.0 °F 93.0 °F 73.0 °F 65% 30.13 in 6.0 mi Calm Calm - N/A   Haze
10:53 AM 88.0 °F 94.7 °F 72.0 °F 59% 30.13 in 10.0 mi Calm Calm - N/A   Partly Cloudy
11:53 AM 90.0 °F 96.9 °F 72.0 °F 55% 30.13 in 10.0 mi Variable 3.5 mph - N/A   Clear
12:53 PM 90.0 °F 96.4 °F 71.1 °F 54% 30.11 in 10.0 mi Calm Calm - N/A   Scattered Clouds
1:53 PM 91.0 °F 99.3 °F 73.0 °F 55% 30.10 in 10.0 mi Calm Calm - N/A   Partly Cloudy
2:53 PM 91.0 °F 99.3 °F 73.0 °F 55% 30.08 in 8.0 mi SSW 6.9 mph - N/A   Partly Cloudy
3:53 PM 91.9 °F 100.7 °F 73.0 °F 54% 30.06 in 9.0 mi South 5.8 mph - N/A   Clear
4:53 PM 90.0 °F 99.0 °F 73.9 °F 59% 30.04 in 7.0 mi Variable 3.5 mph - N/A   Clear
5:53 PM 91.0 °F 99.3 °F 73.0 °F 55% 30.03 in 8.0 mi SSW 4.6 mph - N/A Thunderstorm Thunderstorm
6:19 PM 87.8 °F 95.6 °F 73.4 °F 62% 30.05 in 8.0 mi SSW 9.2 mph - N/A   Clear
6:53 PM 89.1 °F 99.1 °F 75.0 °F 63% 30.03 in 8.0 mi Calm Calm - N/A   Clear
7:53 PM 86.0 °F 93.8 °F 73.9 °F 67% 30.04 in 8.0 mi SSW 3.5 mph - N/A   Clear
8:53 PM 84.0 °F 91.9 °F 75.0 °F 74% 30.04 in 7.0 mi Calm Calm - N/A   Clear
9:53 PM 82.0 °F 89.4 °F 75.9 °F 82% 30.06 in 8.0 mi SSW 3.5 mph - N/A   Clear
10:53 PM 82.0 °F 89.4 °F 75.9 °F 82% 30.05 in 7.0 mi Variable 3.5 mph - N/A   Clear
11:53 PM 79.0 °F - 75.9 °F 90% 30.04 in 6.0 mi Calm Calm - N/A   Clear